Stündliche Wetter Barnowiec

Heute, 30 Oktober, Freitag

Zeit Temperatur Niederschläge Wind Luftdruck Luftfeuchtigkeit
00:00 +4°C° 0.1 mm 3 m/S 709 mmHg 90%
01:00 +4°C° 0 mm 2 m/S 709 mmHg 89%
02:00 +4°C° 0 mm 2 m/S 709 mmHg 90%
03:00 +3°C° 0 mm 2 m/S 709 mmHg 91%
04:00 +4°C° 0 mm 1 m/S 709 mmHg 92%
05:00 +4°C° 0 mm 1 m/S 709 mmHg 91%
06:00 +4°C° 0 mm 1 m/S 710 mmHg 90%
07:00 +4°C° 0 mm 1 m/S 710 mmHg 90%
08:00 +5°C° 0 mm 1 m/S 710 mmHg 83%
09:00 +7°C° 0 mm 1 m/S 710 mmHg 77%
10:00 +8°C° 0 mm 1 m/S 711 mmHg 71%
11:00 +9°C° 0 mm 1 m/S 711 mmHg 68%
12:00 +9°C° 0 mm 2 m/S 710 mmHg 65%
13:00 +9°C° 0 mm 2 m/S 710 mmHg 62%
14:00 +8°C° 0.3 mm 2 m/S 710 mmHg 69%
15:00 +8°C° 0.3 mm 2 m/S 709 mmHg 77%
16:00 +7°C° 0.3 mm 2 m/S 709 mmHg 85%
17:00 +6°C° 0.7 mm 2 m/S 709 mmHg 87%
18:00 +6°C° 0.7 mm 2 m/S 709 mmHg 90%
19:00 +6°C° 0.7 mm 2 m/S 708 mmHg 93%
20:00 +6°C° 1.1 mm 2 m/S 708 mmHg 93%
21:00 +6°C° 1.1 mm 2 m/S 708 mmHg 94%
22:00 +6°C° 1.1 mm 2 m/S 708 mmHg 95%
23:00 +7°C° 0.9 mm 2 m/S 708 mmHg 95%

Morgen, 31 Oktober, Samstag

Zeit Temperatur Niederschläge Wind Luftdruck Luftfeuchtigkeit
00:00 +7°C° 0.9 mm 2 m/S 708 mmHg 95%
01:00 +8°C° 0.9 mm 2 m/S 707 mmHg 95%
02:00 +8°C° 1 mm 2 m/S 707 mmHg 96%
03:00 +8°C° 1 mm 2 m/S 708 mmHg 97%
04:00 +8°C° 1 mm 3 m/S 708 mmHg 97%
05:00 +8°C° 0.3 mm 3 m/S 708 mmHg 97%
06:00 +8°C° 0.3 mm 3 m/S 709 mmHg 97%
07:00 +7°C° 0.3 mm 3 m/S 709 mmHg 96%
08:00 +7°C° 0.1 mm 3 m/S 710 mmHg 94%
09:00 +7°C° 0.1 mm 3 m/S 710 mmHg 91%
10:00 +7°C° 0.1 mm 2 m/S 710 mmHg 89%
11:00 +7°C° 0 mm 2 m/S 711 mmHg 84%
12:00 +8°C° 0 mm 2 m/S 711 mmHg 80%
13:00 +8°C° 0 mm 2 m/S 711 mmHg 76%
14:00 +8°C° 0 mm 1 m/S 711 mmHg 79%
15:00 +8°C° 0 mm 1 m/S 711 mmHg 82%
16:00 +7°C° 0 mm 1 m/S 711 mmHg 85%
17:00 +6°C° 0 mm 1 m/S 712 mmHg 87%
18:00 +6°C° 0 mm 1 m/S 712 mmHg 88%
19:00 +4°C° 0 mm 0 m/S 712 mmHg 90%
20:00 +4°C° 0 mm 0 m/S 712 mmHg 91%
21:00 +3°C° 0 mm 0 m/S 712 mmHg 91%
22:00 +3°C° 0 mm 0 m/S 712 mmHg 92%
23:00 +3°C° 0 mm 0 m/S 712 mmHg 92%

übermorgen, 1 November, Sonntag

Zeit Temperatur Niederschläge Wind Luftdruck Luftfeuchtigkeit
00:00 +3°C° 0 mm 0 m/S 712 mmHg 92%
01:00 +2°C° 0 mm 0 m/S 712 mmHg 92%
02:00 +3°C° 0 mm 1 m/S 712 mmHg 91%
03:00 +3°C° 0 mm 1 m/S 712 mmHg 91%
04:00 +3°C° 0 mm 1 m/S 712 mmHg 91%
05:00 +3°C° 0 mm 1 m/S 711 mmHg 90%
06:00 +3°C° 0 mm 1 m/S 711 mmHg 89%
07:00 +3°C° 0 mm 1 m/S 711 mmHg 88%
08:00 +5°C° 0 mm 1 m/S 712 mmHg 81%
09:00 +7°C° 0 mm 1 m/S 712 mmHg 74%
10:00 +9°C° 0 mm 1 m/S 712 mmHg 66%
11:00 +10°C° 0 mm 1 m/S 712 mmHg 63%
12:00 +10°C° 0 mm 1 m/S 712 mmHg 59%
13:00 +11°C° 0 mm 1 m/S 711 mmHg 56%
14:00 +10°C° 0 mm 1 m/S 711 mmHg 62%
15:00 +9°C° 0 mm 1 m/S 710 mmHg 69%
16:00 +7°C° 0 mm 1 m/S 710 mmHg 75%
17:00 +7°C° 0 mm 1 m/S 710 mmHg 78%
18:00 +7°C° 0 mm 1 m/S 710 mmHg 81%
19:00 +6°C° 0 mm 1 m/S 710 mmHg 84%
20:00 +6°C° 0 mm 1 m/S 709 mmHg 85%
21:00 +5°C° 0 mm 2 m/S 709 mmHg 87%
22:00 +5°C° 0 mm 2 m/S 709 mmHg 88%
23:00 +5°C° 0 mm 2 m/S 709 mmHg 88%

2 November, Montag

Zeit Temperatur Niederschläge Wind Luftdruck Luftfeuchtigkeit
00:00 +6°C° 0 mm 1 m/S 709 mmHg 88%
01:00 +6°C° 0 mm 1 m/S 709 mmHg 88%
02:00 +6°C° 0.2 mm 1 m/S 709 mmHg 89%
03:00 +6°C° 0.2 mm 2 m/S 709 mmHg 90%
04:00 +6°C° 0.2 mm 2 m/S 709 mmHg 91%
05:00 +6°C° 0.1 mm 2 m/S 709 mmHg 91%
06:00 +6°C° 0.1 mm 2 m/S 709 mmHg 91%
07:00 +6°C° 0.1 mm 2 m/S 709 mmHg 91%
08:00 +7°C° 0 mm 2 m/S 709 mmHg 89%
09:00 +8°C° 0 mm 2 m/S 709 mmHg 87%
10:00 +9°C° 0 mm 2 m/S 710 mmHg 85%
11:00 +9°C° 0 mm 2 m/S 710 mmHg 84%
12:00 +10°C° 0 mm 2 m/S 710 mmHg 83%
13:00 +12°C° 0 mm 2 m/S 710 mmHg 82%
14:00 +10°C° 0 mm 2 m/S 709 mmHg 85%
15:00 +9°C° 0 mm 2 m/S 709 mmHg 88%
16:00 +9°C° 0 mm 2 m/S 709 mmHg 91%
17:00 +8°C° 0 mm 2 m/S 709 mmHg 92%
18:00 +8°C° 0 mm 2 m/S 709 mmHg 93%
19:00 +8°C° 0 mm 2 m/S 709 mmHg 94%
20:00 +8°C° 0 mm 2 m/S 709 mmHg 93%
21:00 +8°C° 0 mm 2 m/S 709 mmHg 93%
22:00 +8°C° 0 mm 2 m/S 710 mmHg 93%
23:00 +8°C° 0 mm 2 m/S 709 mmHg 93%

3 November, Dienstag

Zeit Temperatur Niederschläge Wind Luftdruck Luftfeuchtigkeit
00:00 +8°C° 0 mm 2 m/S 709 mmHg 94%
01:00 +8°C° 0 mm 2 m/S 709 mmHg 95%
02:00 +8°C° 0 mm 2 m/S 709 mmHg 94%
03:00 +8°C° 0 mm 2 m/S 709 mmHg 94%
04:00 +9°C° 0 mm 2 m/S 709 mmHg 94%
05:00 +9°C° 0 mm 2 m/S 710 mmHg 94%
06:00 +9°C° 0 mm 2 m/S 710 mmHg 94%
07:00 +9°C° 0 mm 2 m/S 710 mmHg 94%
08:00 +10°C° 0 mm 2 m/S 710 mmHg 93%
09:00 +11°C° 0 mm 1 m/S 711 mmHg 91%
10:00 +12°C° 0 mm 1 m/S 711 mmHg 90%
11:00 +13°C° 0 mm 1 m/S 711 mmHg 88%
12:00 +13°C° 0 mm 1 m/S 711 mmHg 87%
13:00 +14°C° 0 mm 1 m/S 712 mmHg 85%
14:00 +13°C° 0 mm 1 m/S 712 mmHg 88%
15:00 +13°C° 0 mm 1 m/S 712 mmHg 90%
16:00 +13°C° 0 mm 1 m/S 712 mmHg 93%
17:00 +12°C° 0.1 mm 1 m/S 712 mmHg 94%
18:00 +12°C° 0.1 mm 1 m/S 712 mmHg 96%
19:00 +12°C° 0.1 mm 1 m/S 712 mmHg 97%
20:00 +12°C° 0.1 mm 1 m/S 713 mmHg 97%
21:00 +11°C° 0.1 mm 1 m/S 713 mmHg 96%
22:00 +11°C° 0.1 mm 1 m/S 713 mmHg 95%
23:00 +11°C° 0.2 mm 1 m/S 713 mmHg 94%

4 November, Mittwoch

Zeit Temperatur Niederschläge Wind Luftdruck Luftfeuchtigkeit
00:00 +10°C° 0.2 mm 1 m/S 713 mmHg 94%
01:00 +10°C° 0.2 mm 1 m/S 712 mmHg 93%
02:00 +10°C° 0.4 mm 1 m/S 712 mmHg 94%
03:00 +10°C° 0.4 mm 1 m/S 712 mmHg 94%
04:00 +10°C° 0.4 mm 1 m/S 712 mmHg 95%
05:00 +10°C° 0.4 mm 1 m/S 712 mmHg 95%
06:00 +10°C° 0.4 mm 1 m/S 712 mmHg 96%
07:00 +10°C° 0.4 mm 1 m/S 713 mmHg 97%
08:00 +10°C° 0.2 mm 1 m/S 713 mmHg 96%
09:00 +10°C° 0.2 mm 1 m/S 713 mmHg 95%
10:00 +10°C° 0.2 mm 1 m/S 713 mmHg 95%
11:00 +10°C° 0.3 mm 1 m/S 713 mmHg 95%
12:00 +10°C° 0.3 mm 1 m/S 713 mmHg 96%
13:00 +10°C° 0.3 mm 1 m/S 713 mmHg 96%
14:00 +9°C° 0.6 mm 1 m/S 713 mmHg 97%
15:00 +9°C° 0.6 mm 1 m/S 713 mmHg 97%
16:00 +8°C° 0.6 mm 2 m/S 714 mmHg 97%
17:00 +7°C° 0.8 mm 2 m/S 714 mmHg 97%
18:00 +7°C° 0.8 mm 2 m/S 714 mmHg 97%
19:00 +7°C° 0.8 mm 2 m/S 715 mmHg 97%
20:00 +6°C° 0.5 mm 2 m/S 715 mmHg 97%
21:00 +6°C° 0.5 mm 2 m/S 715 mmHg 97%
22:00 +6°C° 0.5 mm 2 m/S 716 mmHg 96%
23:00 +6°C° 0.6 mm 2 m/S 716 mmHg 96%
Mehr zeigen